Tracking 28790 objects as of 19-Apr-2024
HD Live streaming from Space Station
objects crossing your sky now

SPACEBEE-157

Track SPACEBEE-157 now!
10-day predictions


NORAD ID: 55102
Int'l Code: 2023-001CX
Perigee: 439.8 km
Apogee: 450.1 km
Inclination: 97.4 °
Period: 93.3 minutes
Semi major axis: 6815 km
RCS: Unknown
Launch date: January 3, 2023
Source: United States (US)
Launch site: AIR FORCE EASTERN TEST RANGE (AFETR)
Your satellite tracking list
Your tracking list is empty




NASA's NSSDC Master Catalog

Two Line Element Set (TLE):
1 55102U 23001CX  24109.66262118  .00089650  00000-0  20262-2 0  9999
2 55102  97.4247 175.5735 0007614   3.3722 356.7575 15.42814422 71959
Source of the keplerian elements: AFSPC